| time (UTC) | temp F | wind direction | speed MPH | gust MPH | rain 1hr in | rain 24hr in | rain mn in | humidity % | barometer mb |
| 20260506215034 | 62 | 347 | 18.0 | 24.0 | 0.00 | 0.00 | 0.00 | 85 | 1023.4 |
| 20260506214032 | 62 | 5 | 20.0 | 30.0 | 0.00 | 0.00 | 0.00 | 85 | 1023.4 |
| 20260506213027 | 61 | 13 | 18.0 | 30.0 | 0.00 | 0.00 | 0.00 | 86 | 1023.6 |
| 20260506212025 | 61 | 5 | 18.0 | 27.0 | 0.00 | 0.00 | 0.00 | 87 | 1023.7 |
| 20260506211022 | 61 | 359 | 17.0 | 26.0 | 0.00 | 0.00 | 0.00 | 88 | 1023.8 |
| 20260506210016 | 61 | 17 | 17.0 | 28.0 | 0.00 | 0.00 | 0.00 | 89 | 1023.8 |
| 20260506205134 | 61 | 0 | 14.0 | 21.0 | 0.00 | 0.00 | 0.00 | 90 | 1023.9 |
| 20260506204110 | 61 | 6 | 16.0 | 23.0 | 0.00 | 0.00 | 0.00 | 91 | 1023.9 |
| 20260506203108 | 61 | 354 | 17.0 | 27.0 | 0.00 | 0.00 | 0.00 | 91 | 1024.0 |
| 20260506202103 | 61 | 344 | 16.0 | 21.0 | 0.00 | 0.00 | 0.00 | 91 | 1024.0 |
| 20260506201059 | 60 | 9 | 16.0 | 24.0 | 0.00 | 0.00 | 0.00 | 91 | 1024.0 |
| 20260506200057 | 60 | 360 | 17.0 | 23.0 | 0.00 | 0.00 | 0.00 | 92 | 1023.9 |
| 20260506195054 | 60 | 353 | 18.0 | 24.0 | 0.00 | 0.00 | 0.00 | 92 | 1023.9 |
| 20260506194049 | 60 | 1 | 16.0 | 21.0 | 0.00 | 0.00 | 0.00 | 92 | 1023.8 |
| 20260506193045 | 60 | 343 | 17.0 | 22.0 | 0.00 | 0.00 | 0.00 | 92 | 1023.8 |
| 20260506192044 | 60 | 356 | 16.0 | 24.0 | 0.00 | 0.00 | 0.00 | 92 | 1023.9 |
| 20260506191038 | 60 | 343 | 16.0 | 25.0 | 0.00 | 0.00 | 0.00 | 91 | 1023.9 |
| 20260506190035 | 60 | 359 | 15.0 | 23.0 | 0.00 | 0.00 | 0.00 | 90 | 1023.9 |
| 20260506185033 | 60 | 343 | 16.0 | 24.0 | 0.00 | 0.00 | 0.00 | 89 | 1024.0 |
| 20260506184048 | 60 | 351 | 17.0 | 23.0 | 0.00 | 0.00 | 0.00 | 88 | 1024.1 |
| 20260506183025 | 60 | 18 | 16.0 | 26.0 | 0.00 | 0.00 | 0.00 | 88 | 1024.1 |
| 20260506182041 | 60 | 312 | 16.0 | 21.0 | 0.00 | 0.00 | 0.00 | 88 | 1024.2 |
| 20260506181018 | 60 | 347 | 15.0 | 23.0 | 0.00 | 0.00 | 0.00 | 87 | 1024.3 |
| 20260506180117 | 60 | 8 | 15.0 | 21.0 | 0.00 | 0.00 | 0.00 | 87 | 1024.2 |
| 20260506175111 | 60 | 9 | 16.0 | 21.0 | 0.00 | 0.00 | 0.00 | 86 | 1024.2 |
| 20260506174110 | 60 | 348 | 16.0 | 23.0 | 0.00 | 0.00 | 0.00 | 86 | 1024.3 |
| 20260506173105 | 60 | 356 | 17.0 | 23.0 | 0.00 | 0.00 | 0.00 | 85 | 1024.4 |
| 20260506172100 | 60 | 8 | 19.0 | 28.0 | 0.00 | 0.00 | 0.00 | 86 | 1024.4 |
| 20260506171119 | 60 | 355 | 18.0 | 30.0 | 0.00 | 0.00 | 0.00 | 87 | 1024.4 |
| 20260506170053 | 60 | 355 | 15.0 | 26.0 | 0.00 | 0.00 | 0.00 | 88 | 1024.3 |
| 20260506165049 | 60 | 353 | 16.0 | 23.0 | 0.00 | 0.00 | 0.00 | 88 | 1024.2 |
| 20260506164047 | 60 | 351 | 15.0 | 21.0 | 0.00 | 0.00 | 0.00 | 87 | 1024.3 |
| 20260506163042 | 60 | 7 | 13.0 | 20.0 | 0.00 | 0.00 | 0.00 | 86 | 1024.4 |
| 20260506162039 | 60 | 342 | 14.0 | 22.0 | 0.00 | 0.00 | 0.00 | 86 | 1024.5 |
| 20260506161035 | 60 | 360 | 14.0 | 23.0 | 0.00 | 0.00 | 0.00 | 85 | 1024.8 |
| 20260506160034 | 61 | 16 | 15.0 | 23.0 | 0.00 | 0.00 | 0.00 | 86 | 1025.0 |
| 20260506155028 | 60 | 8 | 15.0 | 22.0 | 0.00 | 0.00 | 0.00 | 86 | 1025.1 |
| 20260506154106 | 60 | 3 | 14.0 | 21.0 | 0.00 | 0.00 | 0.00 | 86 | 1025.2 |
| 20260506153023 | 60 | 354 | 15.0 | 24.0 | 0.00 | 0.00 | 0.00 | 87 | 1025.3 |
| 20260506152018 | 60 | 350 | 15.0 | 25.0 | 0.00 | 0.00 | 0.00 | 88 | 1025.5 |
| 20260506151116 | 60 | 3 | 14.0 | 23.0 | 0.00 | 0.00 | 0.00 | 87 | 1025.6 |
| 20260506150111 | 60 | 353 | 13.0 | 18.0 | 0.00 | 0.00 | 0.00 | 86 | 1025.7 |
| 20260506145109 | 60 | 353 | 14.0 | 23.0 | 0.00 | 0.00 | 0.00 | 85 | 1026.0 |
| 20260506144124 | 61 | 8 | 14.0 | 22.0 | 0.00 | 0.00 | 0.00 | 85 | 1026.1 |
| 20260506143101 | 61 | 14 | 16.0 | 27.0 | 0.00 | 0.00 | 0.00 | 84 | 1026.2 |
| 20260506142059 | 61 | 353 | 15.0 | 23.0 | 0.00 | 0.00 | 0.00 | 84 | 1026.2 |
| 20260506141116 | 61 | 346 | 15.0 | 21.0 | 0.00 | 0.00 | 0.00 | 84 | 1026.4 |
| 20260506140050 | 61 | 356 | 14.0 | 27.0 | 0.00 | 0.00 | 0.00 | 84 | 1026.4 |
| 20260506135046 | 61 | 17 | 17.0 | 24.0 | 0.00 | 0.00 | 0.00 | 84 | 1026.4 |
| 20260506134043 | 61 | 357 | 14.0 | 22.0 | 0.00 | 0.00 | 0.00 | 85 | 1026.4 |
| 20260506133100 | 61 | 14 | 16.0 | 26.0 | 0.00 | 0.00 | 0.00 | 86 | 1026.4 |
| 20260506132057 | 61 | 12 | 15.0 | 23.0 | 0.00 | 0.00 | 0.00 | 86 | 1026.4 |
| 20260506131031 | 61 | 356 | 15.0 | 23.0 | 0.00 | 0.00 | 0.00 | 86 | 1026.5 |
| 20260506130028 | 61 | 347 | 12.0 | 21.0 | 0.00 | 0.00 | 0.00 | 87 | 1026.4 |
| 20260506125024 | 61 | 9 | 16.0 | 24.0 | 0.00 | 0.00 | 0.00 | 87 | 1026.6 |
| 20260506124021 | 61 | 346 | 11.0 | 18.0 | 0.00 | 0.00 | 0.00 | 87 | 1026.7 |
| 20260506123017 | 61 | 342 | 14.0 | 21.0 | 0.00 | 0.00 | 0.00 | 87 | 1026.7 |
| 20260506122116 | 61 | 340 | 13.0 | 17.0 | 0.00 | 0.00 | 0.00 | 87 | 1026.7 |
| 20260506121111 | 61 | 359 | 15.0 | 23.0 | 0.00 | 0.00 | 0.00 | 86 | 1026.8 |
| 20260506120109 | 61 | 5 | 13.0 | 19.0 | 0.00 | 0.00 | 0.00 | 86 | 1026.7 |
| 20260506115104 | 61 | 5 | 12.0 | 18.0 | 0.00 | 0.00 | 0.00 | 86 | 1026.7 |
| 20260506114102 | 61 | 0 | 13.0 | 20.0 | 0.00 | 0.00 | 0.00 | 85 | 1026.7 |
| 20260506113058 | 61 | 8 | 14.0 | 23.0 | 0.00 | 0.00 | 0.00 | 86 | 1026.7 |
| 20260506112054 | 61 | 359 | 12.0 | 21.0 | 0.00 | 0.00 | 0.00 | 86 | 1026.7 |
| 20260506111051 | 61 | 356 | 13.0 | 20.0 | 0.00 | 0.00 | 0.00 | 86 | 1026.8 |
| 20260506110046 | 60 | 335 | 10.0 | 16.0 | 0.00 | 0.00 | 0.00 | 86 | 1026.8 |
| 20260506105043 | 60 | 23 | 11.0 | 16.0 | 0.00 | 0.00 | 0.00 | 86 | 1026.8 |
| 20260506104039 | 60 | 5 | 10.0 | 16.0 | 0.00 | 0.00 | 0.00 | 86 | 1026.9 |
| 20260506103035 | 60 | 351 | 10.0 | 17.0 | 0.00 | 0.00 | 0.00 | 85 | 1026.8 |
| 20260506102034 | 60 | 12 | 10.0 | 14.0 | 0.00 | 0.00 | 0.00 | 85 | 1026.8 |
| 20260506101049 | 60 | 348 | 9.0 | 13.0 | 0.00 | 0.00 | 0.00 | 85 | 1026.8 |
| 20260506100025 | 60 | 2 | 10.0 | 15.0 | 0.00 | 0.00 | 0.00 | 84 | 1026.7 |
| 20260506095021 | 60 | 7 | 9.0 | 12.0 | 0.00 | 0.00 | 0.00 | 83 | 1026.8 |
| 20260506094018 | 60 | 356 | 8.0 | 12.0 | 0.00 | 0.00 | 0.00 | 83 | 1026.8 |
| 20260506093139 | 60 | 3 | 8.0 | 13.0 | 0.00 | 0.00 | 0.00 | 82 | 1026.8 |
| 20260506092111 | 60 | 20 | 8.0 | 13.0 | 0.00 | 0.00 | 0.00 | 82 | 1026.9 |
| 20260506091108 | 60 | 359 | 7.0 | 11.0 | 0.00 | 0.00 | 0.00 | 81 | 1026.8 |
| 20260506090106 | 60 | 358 | 6.0 | 11.0 | 0.00 | 0.00 | 0.00 | 80 | 1026.8 |
| 20260506085101 | 59 | 1 | 6.0 | 10.0 | 0.00 | 0.00 | 0.00 | 80 | 1026.9 |
| 20260506084119 | 59 | 27 | 6.0 | 8.0 | 0.00 | 0.00 | 0.00 | 80 | 1026.9 |
| 20260506083055 | 59 | 3 | 7.0 | 9.0 | 0.00 | 0.00 | 0.00 | 80 | 1027.1 |
| 20260506082052 | 59 | 350 | 6.0 | 9.0 | 0.00 | 0.00 | 0.00 | 82 | 1027.2 |
| 20260506081049 | 58 | 352 | 5.0 | 11.0 | 0.00 | 0.00 | 0.00 | 83 | 1027.2 |
| 20260506073116 | 58 | 8 | 4.0 | 6.0 | 0.00 | 0.00 | 0.00 | 85 | 1027.3 |
| 20260506072029 | 59 | 353 | 4.0 | 6.0 | 0.00 | 0.00 | 0.00 | 86 | 1027.3 |
| 20260506071026 | 59 | 5 | 5.0 | 8.0 | 0.00 | 0.00 | 0.00 | 86 | 1027.3 |
| 20260506062152 | 59 | 28 | 4.0 | 7.0 | 0.00 | 0.00 | 0.00 | 84 | 1027.3 |
| 20260506061106 | 60 | 8 | 4.0 | 8.0 | 0.00 | 0.00 | 0.00 | 84 | 1027.4 |
| 20260506060105 | 60 | 357 | 4.0 | 7.0 | 0.00 | 0.00 | 0.00 | 83 | 1027.3 |
| 20260506051107 | 64 | 342 | 9.0 | 15.0 | 0.00 | 0.00 | 0.00 | 74 | 1027.3 |
| 20260506045039 | 65 | 349 | 11.0 | 15.0 | 0.00 | 0.00 | 0.00 | 72 | 1027.4 |
| 20260506044055 | 65 | 360 | 10.0 | 16.0 | 0.00 | 0.00 | 0.00 | 72 | 1027.4 |
| 20260506043032 | 65 | 340 | 10.0 | 17.0 | 0.00 | 0.00 | 0.00 | 72 | 1027.5 |
| 20260506042028 | 65 | 328 | 10.0 | 15.0 | 0.00 | 0.00 | 0.00 | 72 | 1027.5 |
| 20260506041025 | 66 | 346 | 10.0 | 17.0 | 0.00 | 0.00 | 0.00 | 72 | 1027.7 |
| 20260506040021 | 66 | 0 | 12.0 | 17.0 | 0.00 | 0.00 | 0.00 | 72 | 1027.7 |
| 20260506035017 | 66 | 326 | 12.0 | 20.0 | 0.00 | 0.00 | 0.00 | 73 | 1027.7 |
| 20260506034117 | 65 | 338 | 13.0 | 18.0 | 0.00 | 0.00 | 0.00 | 73 | 1027.7 |
| 20260506033113 | 65 | 328 | 13.0 | 17.0 | 0.00 | 0.00 | 0.00 | 73 | 1027.6 |
| 20260506032109 | 66 | 346 | 14.0 | 23.0 | 0.00 | 0.00 | 0.00 | 72 | 1027.7 |
| 20260506031144 | 66 | 334 | 15.0 | 21.0 | 0.00 | 0.00 | 0.00 | 72 | 1027.7 |
| 20260506030100 | 66 | 356 | 13.0 | 17.0 | 0.00 | 0.00 | 0.00 | 72 | 1027.7 |
| 20260506025057 | 65 | 312 | 13.0 | 18.0 | 0.00 | 0.00 | 0.00 | 72 | 1027.7 |
| 20260506024053 | 66 | 356 | 13.0 | 18.0 | 0.00 | 0.00 | 0.00 | 72 | 1027.6 |
| 20260506023132 | 65 | 352 | 11.0 | 17.0 | 0.00 | 0.00 | 0.00 | 72 | 1027.7 |
| 20260506022046 | 65 | 345 | 13.0 | 18.0 | 0.00 | 0.00 | 0.00 | 72 | 1027.7 |
| 20260506021103 | 66 | 348 | 14.0 | 19.0 | 0.00 | 0.00 | 0.00 | 72 | 1027.9 |
| 20260506020040 | 65 | 349 | 13.0 | 17.0 | 0.00 | 0.00 | 0.00 | 73 | 1028.0 |
| 20260506015037 | 65 | 0 | 13.0 | 18.0 | 0.00 | 0.00 | 0.00 | 71 | 1028.0 |
| 20260506014054 | 67 | 354 | 9.0 | 18.0 | 0.00 | 0.00 | 0.00 | 72 | 1028.0 |
| 20260506013030 | 65 | 357 | 14.0 | 21.0 | 0.00 | 0.00 | 0.00 | 72 | 1028.0 |
| 20260506012025 | 65 | 352 | 11.0 | 17.0 | 0.00 | 0.00 | 0.00 | 72 | 1028.0 |
| 20260506011022 | 65 | 15 | 12.0 | 21.0 | 0.00 | 0.00 | 0.00 | 73 | 1028.1 |
| 20260506010018 | 65 | 358 | 13.0 | 23.0 | 0.00 | 0.00 | 0.00 | 74 | 1028.2 |
| 20260506005115 | 65 | 336 | 14.0 | 23.0 | 0.00 | 0.00 | 0.00 | 74 | 1028.4 |
| 20260506004111 | 64 | 8 | 11.0 | 15.0 | 0.00 | 0.00 | 0.00 | 74 | 1028.5 |
| 20260506003110 | 64 | 359 | 14.0 | 18.0 | 0.00 | 0.00 | 0.00 | 74 | 1028.7 |
| 20260506002107 | 64 | 334 | 14.0 | 19.0 | 0.00 | 0.00 | 0.00 | 76 | 1029.0 |
| 20260506001102 | 64 | 347 | 13.0 | 21.0 | 0.00 | 0.00 | 0.00 | 77 | 1029.1 |
| 20260506000057 | 63 | 347 | 12.0 | 16.0 | 0.00 | 0.00 | 0.00 | 81 | 1029.2 |
| 20260505235054 | 63 | 349 | 11.0 | 16.0 | 0.00 | 0.00 | 0.00 | 80 | 1029.2 |
| 20260505234111 | 63 | 341 | 11.0 | 16.0 | 0.00 | 0.00 | 0.00 | 79 | 1029.1 |
| 20260505233048 | 64 | 350 | 10.0 | 15.0 | 0.00 | 0.00 | 0.00 | 75 | 1029.3 |
| 20260505231041 | 64 | 3 | 11.0 | 16.0 | 0.00 | 0.00 | 0.00 | 74 | 1029.4 |
| 20260505230037 | 65 | 0 | 12.0 | 20.0 | 0.00 | 0.00 | 0.00 | 72 | 1029.4 |
| 20260505225035 | 65 | 356 | 12.0 | 19.0 | 0.00 | 0.00 | 0.00 | 72 | 1029.5 |
| 20260505224032 | 65 | 2 | 13.0 | 21.0 | 0.00 | 0.00 | 0.00 | 71 | 1029.4 |
| 20260505223027 | 65 | 6 | 10.0 | 16.0 | 0.00 | 0.00 | 0.00 | 72 | 1029.5 |
| 20260505222023 | 65 | 7 | 12.0 | 18.0 | 0.00 | 0.00 | 0.00 | 72 | 1029.4 |
| 20260505221020 | 64 | 359 | 11.0 | 15.0 | 0.00 | 0.00 | 0.00 | 72 | 1029.5 |
| 20260505220038 | 64 | 8 | 13.0 | 20.0 | 0.00 | 0.00 | 0.00 | 73 | 1029.5 |